Location: Unspecified
(0.0000°N, 0.0000°E)
Time: 17:48:04
(UTC+00:00)

DSAT - Visible Passes

Search period start: 12 May 2025 00:00
Search period end: 22 May 2025 00:00
Orbit: 470 x 603 km, 97.5° (Epoch: 11 May)

Date Brightness Start Highest point End Pass type
(mag) Time Alt. Az. Time Alt. Az. Time Alt. Az.
12 May ? 04:09:26 10° N 04:10:35 19° N 04:10:35 19° N visible
13 May ? 04:01:04 10° N 04:02:17 20° N 04:02:17 20° N visible
14 May ? 03:52:45 10° NNE 03:53:58 20° NNE 03:53:58 20° NNE visible
15 May ? 03:44:32 10° NNE 03:45:37 18° NNE 03:45:37 18° NNE visible
16 May ? 03:36:21 10° NNE 03:37:17 16° NE 03:37:17 16° NE visible
17 May ? 03:28:15 10° NE 03:28:54 14° NE 03:28:54 14° NE visible
18 May ? 03:20:15 10° NE 03:20:31 11° NE 03:20:31 11° NE visible
19 May ? 04:46:44 10° NW 04:47:34 13° NW 04:47:34 13° NW visible
20 May ? 04:37:46 10° NNW 04:39:09 17° NW 04:39:09 17° NW visible
21 May ? 04:28:58 10° NNW 04:30:43 21° NW 04:30:43 21° NW visible
